Le nostre stazioni meteo in Italia

Pubblicità
Il mio iltempo24.it
Napoli/Capodichino, Italia (16289): Temperatura & dewpoint: 14.01.2019 07:00:00 - 20.01.2019 07:00:00 (CET)Napoli/Capodichino, Italia (16289): velocità del vento: 14.01.2019 07:00:00 - 20.01.2019 07:00:00 (CET)Napoli/Capodichino, Italia (16289): direzione del vento: 14.01.2019 07:00:00 - 20.01.2019 07:00:00 (CET)Napoli/Capodichino, Italia (16289): reduced air pressure: 14.01.2019 07:00:00 - 20.01.2019 07:00:00 (CET)Napoli/Capodichino, Italia (16289): visibility: 14.01.2019 07:00:00 - 20.01.2019 07:00:00 (CET)Napoli/Capodichino, Italia (16289): precipitazioni: 14.01.2019 07:00:00 - 20.01.2019 07:00:00 (CET)
Data & Tempo tt [°C] td [°C] ff [km/h] ff [kn] dd ppp [hPa] vv [km] rr [mm]
20.01.2019 07:00:00 5,0 4,0 5 3 N - 10 -
20.01.2019 06:00:00 6,0 4,0 4 2 N - 8 -
20.01.2019 05:00:00 5,0 4,0 5 3 N - 8 -
20.01.2019 04:00:00 5,4 4,7 5 3 N 1013,5 8 0,0
20.01.2019 03:00:00 4,0 3,0 4 2 NNO - 8 -
20.01.2019 02:00:00 4,0 4,0 5 3 N - 7 -
20.01.2019 01:00:00 3,4 3,1 5 3 NNO 1014,0 7 -
20.01.2019 00:00:00 3,0 3,0 5 3 NNE - 8 -
19.01.2019 23:00:00 5,0 4,0 4 2 - - 10 -
19.01.2019 22:00:00 3,7 3,1 4 2 - 1014,2 10 0,0
19.01.2019 21:00:00 4,0 3,0 2 1 - - 10 -
19.01.2019 20:00:00 4,0 3,0 2 1 NO - 10 -
19.01.2019 19:00:00 5,4 4,1 2 1 - 1013,8 10 -
19.01.2019 18:00:00 8,0 6,0 5 3 NNE - 10 -
19.01.2019 17:00:00 9,0 7,0 8 4 NE - 10 -
19.01.2019 16:00:00 9,7 6,9 8 4 ENE 1013,4 10 0,0
19.01.2019 15:00:00 10,0 7,0 8 4 ESE - 10 -
19.01.2019 14:00:00 10,0 6,0 9 5 NO - 10 -
19.01.2019 13:00:00 11,0 5,6 8 4 SSE 1013,7 10 -
19.01.2019 12:00:00 10,0 8,0 4 2 - - 10 -
19.01.2019 11:00:00 9,0 8,0 8 4 - - 8 -
19.01.2019 10:00:00 8,7 7,0 5 3 ONO 1014,6 8 0,0
19.01.2019 09:00:00 9,0 8,0 8 4 N - 10 -
19.01.2019 08:00:00 7,0 7,0 8 4 N - 8 -
19.01.2019 07:00:00 5,5 5,1 5 3 NNO 1013,7 8 -
19.01.2019 06:00:00 5,0 5,0 4 2 - - 8 -
19.01.2019 05:00:00 6,0 6,0 4 2 NNE - 8 -
19.01.2019 04:00:00 6,3 5,9 2 1 - 1014,1 6 0,0
19.01.2019 03:00:00 6,0 5,0 4 2 NNO - 6 -
19.01.2019 02:00:00 8,0 7,0 2 1 - - 10 -
19.01.2019 01:00:00 8,4 7,5 4 2 - 1014,8 8 -
19.01.2019 00:00:00 9,0 8,0 8 4 ENE - 8 -
18.01.2019 23:00:00 9,0 8,0 11 6 N - 5 -
18.01.2019 22:00:00 10,0 8,0 11 6 S 1014,8 8 0,0
18.01.2019 21:00:00 11,0 9,0 13 7 SO - 8 -
18.01.2019 20:00:00 11,0 7,0 4 2 - - 10 -
18.01.2019 19:00:00 10,7 7,1 4 2 - 1014,1 10 -
18.01.2019 18:00:00 11,0 7,0 9 5 S - 10 -
18.01.2019 17:00:00 12,0 7,0 8 4 SSO - 10 -
18.01.2019 16:00:00 12,6 6,3 9 5 SSO 1013,8 10 0,0
18.01.2019 15:00:00 12,0 9,0 5 3 S - 10 -
18.01.2019 14:00:00 14,0 7,0 18 10 SSO - 10 -
18.01.2019 13:00:00 14,8 6,9 16 9 SSO 1014,3 10 -
18.01.2019 12:00:00 13,0 7,0 18 10 SSO - 10 -
18.01.2019 11:00:00 14,0 8,0 15 8 SSO - 10 -
18.01.2019 10:00:00 12,8 9,2 5 3 S 1014,7 9 0,0
18.01.2019 09:00:00 9,0 9,0 2 1 - - 9 -
18.01.2019 08:00:00 6,0 6,0 2 1 - - 8 -
18.01.2019 07:00:00 7,4 6,7 2 1 - 1013,9 10 -
18.01.2019 06:00:00 9,0 8,0 4 2 - - 10 -
18.01.2019 05:00:00 7,0 6,0 8 4 OSO - 10 -
18.01.2019 04:00:00 9,3 7,6 8 4 S 1014,3 10 0,0
18.01.2019 03:00:00 12,0 9,0 18 10 SSO - 9 -
18.01.2019 02:00:00 12,0 7,0 11 6 SSO - 10 -
18.01.2019 01:00:00 12,2 8,7 13 7 S 1015,4 9 -
18.01.2019 00:00:00 12,0 8,0 18 10 SSE - 9 -
17.01.2019 23:00:00 12,0 7,0 13 7 S - 10 -
17.01.2019 22:00:00 12,1 6,6 15 8 - 1016,3 10 0,0
17.01.2019 21:00:00 11,0 7,0 13 7 S - 10 -
17.01.2019 20:00:00 12,0 7,0 13 7 S - 10 -
17.01.2019 19:00:00 11,4 6,4 15 8 S 1017,2 10 -
17.01.2019 18:00:00 12,0 6,0 16 9 S - 10 -
17.01.2019 17:00:00 - - - - - - - -
17.01.2019 16:00:00 12,1 6,0 9 5 S 1017,8 10 0,0
17.01.2019 15:00:00 14,0 6,0 15 8 S - 10 -
17.01.2019 14:00:00 13,0 6,0 15 8 S - 10 -
17.01.2019 13:00:00 12,6 5,4 16 9 S 1019,0 10 -
17.01.2019 12:00:00 13,0 5,0 18 10 S - 10 -
17.01.2019 11:00:00 12,0 4,0 13 7 S - 10 -
17.01.2019 10:00:00 11,6 4,4 8 4 S 1020,7 10 0,0
17.01.2019 09:00:00 9,0 4,0 4 2 - - 10 -
17.01.2019 08:00:00 7,0 3,0 4 2 - - 10 -
17.01.2019 07:00:00 4,0 2,2 2 1 - 1021,0 10 -
17.01.2019 06:00:00 2,0 1,0 4 2 - - 10 -
17.01.2019 05:00:00 2,0 1,0 4 2 NO - 10 -
17.01.2019 04:00:00 1,8 0,0 2 1 NO 1021,9 - 0,0
17.01.2019 03:00:00 1,0 -1,0 4 2 - - 10 -
17.01.2019 02:00:00 2,0 0,0 2 1 - - 10 -
17.01.2019 01:00:00 4,2 1,8 4 2 N 1022,8 10 -
17.01.2019 00:00:00 5,0 2,0 4 2 - - 10 -
16.01.2019 23:00:00 4,0 1,0 5 3 O - 10 -
16.01.2019 22:00:00 5,0 1,2 8 4 O 1023,6 10 0,0
16.01.2019 21:00:00 6,0 2,0 9 5 OSO - 10 -
16.01.2019 20:00:00 8,0 4,0 5 3 SO - 10 -
16.01.2019 19:00:00 8,0 2,7 4 2 OSO 1023,1 10 -
16.01.2019 18:00:00 9,0 3,0 9 5 OSO - 10 -
16.01.2019 17:00:00 12,0 4,0 11 6 O - 10 -
16.01.2019 16:00:00 12,2 3,3 13 7 OSO 1023,3 10 0,0
16.01.2019 15:00:00 13,0 5,0 9 5 S - 10 -
16.01.2019 14:00:00 12,0 4,0 9 5 S - 10 -
16.01.2019 13:00:00 12,7 4,4 13 7 S 1023,9 10 -
16.01.2019 12:00:00 13,0 2,0 9 5 S - 10 -
16.01.2019 11:00:00 11,0 -1,0 4 2 - - 10 -
16.01.2019 10:00:00 7,9 -3,1 4 2 - 1025,3 10 0,0
16.01.2019 09:00:00 6,0 -3,0 2 1 - - 10 -
16.01.2019 08:00:00 5,0 -3,0 4 2 - - 10 -
16.01.2019 07:00:00 3,8 -3,4 4 2 - 1024,2 10 -
16.01.2019 06:00:00 4,0 -2,0 2 1 - - 10 -
16.01.2019 05:00:00 2,0 -2,0 5 3 NNO - 10 -
16.01.2019 04:00:00 1,4 -2,5 4 2 N 1024,0 10 0,0
16.01.2019 03:00:00 -1,0 -4,0 4 2 NNO - 10 -
16.01.2019 02:00:00 2,0 -4,0 2 1 - - 10 -
16.01.2019 01:00:00 3,3 -3,5 5 3 N 1024,0 10 -
16.01.2019 00:00:00 4,0 -4,0 5 3 OSO - 10 -
15.01.2019 23:00:00 4,0 -4,0 5 3 N - 10 -
15.01.2019 22:00:00 3,5 -4,7 5 3 NNO 1023,3 10 0,0
15.01.2019 21:00:00 6,0 -5,0 9 5 NE - 10 -
15.01.2019 20:00:00 6,0 -5,0 9 5 NE - 10 -
15.01.2019 19:00:00 7,4 -4,2 11 6 ENE 1021,4 10 -
15.01.2019 18:00:00 8,0 -5,0 11 6 NE - 10 -
15.01.2019 17:00:00 9,0 -5,0 13 7 NE - 10 -
15.01.2019 16:00:00 10,4 -2,5 21 11 NE 1019,8 10 0,0
15.01.2019 15:00:00 11,0 -3,0 18 10 NE - 10 -
15.01.2019 14:00:00 11,0 -2,0 29 16 NE - 10 -
15.01.2019 13:00:00 11,3 -1,9 26 14 NE 1018,0 15 -
15.01.2019 12:00:00 10,0 0,0 18 10 ENE - 10 -
15.01.2019 11:00:00 9,0 2,0 21 11 NNE - 10 -
15.01.2019 10:00:00 8,1 2,1 16 9 NE 1017,2 10 0,0
15.01.2019 09:00:00 6,0 1,0 16 9 NNE - 10 -
15.01.2019 08:00:00 5,0 1,0 13 7 N - 10 -
15.01.2019 07:00:00 4,4 0,9 9 5 NO 1013,6 10 -
15.01.2019 06:00:00 5,0 1,0 11 6 NE - 10 -
15.01.2019 05:00:00 6,0 1,0 16 9 NNE - 10 -
15.01.2019 04:00:00 3,4 0,9 8 4 NNE 1010,6 10 0,0
15.01.2019 03:00:00 5,0 2,0 11 6 N - 10 -
15.01.2019 02:00:00 5,0 2,0 9 5 NO - 10 -
15.01.2019 01:00:00 6,0 2,1 11 6 N 1008,5 10 -
15.01.2019 00:00:00 5,0 2,0 4 2 N - 10 -
14.01.2019 23:00:00 6,0 3,0 9 5 NNO - 10 -
14.01.2019 22:00:00 5,3 2,8 8 4 NO 1006,6 10 0,0
14.01.2019 21:00:00 6,0 4,0 9 5 N - 10 -
14.01.2019 20:00:00 8,0 6,0 4 2 - - 10 -
14.01.2019 19:00:00 8,6 6,9 9 5 NNE 1004,9 10 -
14.01.2019 18:00:00 10,0 5,0 9 5 NNE - 10 -
14.01.2019 17:00:00 11,0 7,0 9 5 NNO - 10 -
14.01.2019 16:00:00 11,8 8,2 9 5 NNO 1001,5 10 0,0
14.01.2019 15:00:00 11,0 9,0 13 7 NE - 10 -
14.01.2019 14:00:00 10,0 9,0 11 6 N - 3,0 -
14.01.2019 13:00:00 9,6 8,9 9 5 N 1000,7 4,0 -
14.01.2019 12:00:00 9,0 9,0 5 3 NO - 4,0 -
14.01.2019 11:00:00 8,0 7,0 9 5 NNE - 1,0 -
14.01.2019 10:00:00 7,7 7,0 5 3 NNE 1002,6 3,0 0,0
14.01.2019 09:00:00 8,0 7,0 4 2 - - 5 -
14.01.2019 08:00:00 7,0 6,0 4 2 - - 5 -
14.01.2019 07:00:00 6,3 4,8 8 4 NE 1004,2 8 -

tt = Temperatura
td = dewpoint
ff = velocità del vento
dd = direzione del vento
ppp = reduced air pressure
vv = visibility
rr = precipitazioni

Stazioni seguenti

WeatherPro
AMSI
MeteoEarth